Skip Page Navigation
NASA JPL Caltech
NASA Logo - Jet Propulsion Laboratory + View the NASA Portal
+ Center for Near-Earth Object Studies
JPL Home Earth Solar System Stars & Galaxies Technology
JPL Solar System Dynamics
BODIES ORBITS EPHEMERIDES TOOLS PHYSICAL DATA DISCOVERY FAQ SITE MAP
JPL Small-Body Database Browser
Search: [ help ]  
135179 (2001 QV282)
Classification: Main-belt Asteroid          SPK-ID: 2135179
Ephemeris | Orbit Diagram | Orbital Elements | Mission Design | Physical Parameters | Discovery Circumstances | Close-Approach Data ]

[ show orbit diagram ]
Orbital Elements at Epoch 2459200.5 (2020-Dec-17.0) TDB
Reference: JPL 25 (heliocentric ecliptic J2000)
 Element Value Uncertainty (1-sigma)   Units 
e .06883867574379422 3.4752e-08  
a 3.003418539205555 2.0472e-08 au
q 2.796667184262283 1.0117e-07 au
i 11.82667853433601 3.5775e-06 deg
node 129.2645386283922 2.1356e-05 deg
peri 333.781569515104 3.8164e-05 deg
M 146.7529825113968 3.1292e-05 deg
tp 2458425.491174270825
(2018-Nov-02.99117427)
0.00016526 TDB
period 1901.175516080812
5.21
1.9438e-05
5.322e-08
d
yr
n .1893565307121795 1.936e-09 deg/d
Q 3.210169894148826 2.1881e-08 au
  Orbit Determination Parameters
   # obs. used (total)      1038  
   data-arc span      6878 days (18.83 yr)  
   first obs. used      2001-07-29  
   last obs. used      2020-05-28  
   planetary ephem.      DE441  
   SB-pert. ephem.      SB441-N16  
   condition code      0  
   norm. resid. RMS      .52992  
   source      ORB  
   producer      Otto Matic  
   solution date      2021-Apr-13 18:11:51  

Additional Information
 Earth MOID = 1.81802 au 
 Jupiter MOID = 1.88474 au 
 T_jup = 3.216 
[ show covariance matrix ]

Ephemeris | Orbit Diagram | Orbital Elements | Mission Design | Physical Parameters | Discovery Circumstances | Close-Approach Data ]

Physical Parameter Table
Parameter Symbol Value Units Sigma Reference Notes
absolute magnitude H 14.53   n/a E2021B55  
diameter diameter 4.365 km 0.946 urn:nasa:pds:neowise_diameters_albedos::2.0[mainbelt] (http://adsabs.harvard.edu/abs/2011ApJ...741...68M)  
geometric albedo albedo 0.177   0.053 urn:nasa:pds:neowise_diameters_albedos::2.0[mainbelt] (http://adsabs.harvard.edu/abs/2011ApJ...741...68M)  

135179 (2001 QV282)          Discovered 2001-Aug-19 by NEAT at Haleakala
Reference: 20060907/Numbers.arcLast Updated: 2006-09-10

[ show close-approach data ]
Ephemeris | Orbit Diagram | Orbital Elements | Mission Design | Physical Parameters | Discovery Circumstances | Close-Approach Data ]
ABOUT SSD CREDITS/AWARDS PRIVACY/COPYRIGHT GLOSSARY LINKS
FirstGov 2021-May-07 23:49 UT
(server date/time)  
NASA Home Page
Site Manager:   Ryan S. Park
Webmaster  Alan B. Chamberlin